Home > Weather > Chernobyl > Past weeks

Flag for Ukraine Weather for the Past 2 Weeks in Chernobyl, Ukraine

Now
54 °F

Sunny.


Feels Like: 54 °F
Forecast: 49 / 71 °F
Wind: 1 mph from North

Location: Hostomel

Current Time: May 4, 2016 at 8:16:52 AM

Latest Report: May 4, 2016 at 7:30 AM


Visibility: 10 mi

Pressure: 29.98 "Hg

Humidity: 67%

Dew Point: 43 °F

Location of ChernobylLocation

Historic Weather in Chernobyl — Graph

°F

Chernobyl Temperature Yesterday

Maximum temperature yesterday: 68 °F (at 11:00 AM)
Minimum temperature yesterday: 48 °F (at 4:00 AM)
Average temperature yesterday: 60 °F

High & Low Weather Summary for the Past Weeks

 TemperatureHumidityPressure
High68 °F (Apr 24, 3:30 PM)100% (Apr 26, 4:30 AM)30.24 "Hg (Apr 26, 4:30 AM)
Low34 °F (Apr 22, 1:30 AM)18% (Apr 29, 3:00 PM)29.45 "Hg (Apr 25, 3:00 PM)
Average52 °F58%29.92 "Hg
* Reported Apr 19 6:00 AM — May 4 6:30 AM, Chernobyl, Weather by CustomWeather, © 2016

Note: Actual official high and low records may vary slightly from our data, if they occured in-between our weather recording intervals... More about our weather records

Advertising

Chernobyl Weather History for the Previous 24 Hours

Scroll right to see more
 ConditionsComfort  
Time TempWeatherWind HumidityBarometerVisibility
6:30 AM
Wed, May 4
50 °FSunny.6 mph71%29.98 "HgN/A
6:00 AM48 °FClear.3 mph71%29.95 "HgN/A
5:30 AM48 °FClear.3 mph71%29.95 "Hg6 mi
5:00 AM48 °FClear.3 mph71%29.95 "Hg6 mi
4:30 AM50 °FClear.3 mph62%29.95 "Hg6 mi
4:00 AM50 °FClear.3 mph62%29.95 "Hg6 mi
3:30 AM45 °FClear.3 mph76%29.95 "Hg6 mi
3:00 AM48 °FClear.3 mph66%29.95 "Hg6 mi
2:30 AM48 °FClear.3 mph71%29.95 "Hg6 mi
2:00 AM48 °FClear.1 mph71%29.95 "Hg6 mi
1:30 AM52 °FClear.1 mph62%29.95 "Hg6 mi
1:00 AM52 °FClear.1 mph62%29.95 "HgN/A
12:30 AM54 °FClear.3 mph58%29.95 "Hg6 mi
12:00 AM54 °FCool.3 mph58%29.95 "HgN/A
11:30 PM
Tue, May 3
55 °FClear.3 mph55%29.95 "HgN/A
11:00 PM55 °FClear.3 mph55%29.95 "Hg6 mi
10:30 PM55 °FClear.1 mph55%29.95 "Hg6 mi
10:00 PM59 °FRefreshingly cool.1 mph45%29.95 "HgN/A
9:30 PM59 °FRefreshingly cool.1 mph45%29.95 "HgN/A
9:00 PM61 °FRefreshingly cool.1 mph42%29.95 "HgN/A
8:30 PM63 °FMild.3 mph37%29.95 "HgN/A
8:00 PM64 °FMild.1 mph34%29.95 "HgN/A
7:30 PM66 °FMild.3 mph30%29.95 "HgN/A
7:00 PM68 °FMild.6 mph28%29.95 "HgN/A
6:30 PM66 °FMild.3 mph30%29.98 "Hg6 mi
6:00 PM68 °FMild.8 mph28%29.98 "HgN/A
5:30 PM68 °FMild.8 mph26%29.98 "HgN/A
5:00 PM68 °FMild.8 mph28%29.98 "HgN/A
4:30 PM68 °FMild.6 mph26%29.98 "HgN/A
4:00 PM68 °FMild.6 mph28%29.98 "HgN/A
3:30 PM68 °FMild.10 mph26%29.98 "Hg6 mi
2:30 PM68 °FMild.6 mph28%30.01 "HgN/A
2:00 PM68 °FSunny.10 mph28%30.01 "HgN/A
1:30 PM66 °FMild.10 mph24%30.04 "Hg6 mi
1:00 PM68 °FMild.8 mph26%30.04 "HgN/A
12:00 PM68 °FMild.6 mph28%30.04 "HgN/A
11:30 AM68 °FSunny.8 mph30%30.07 "HgN/A
11:00 AM68 °FSunny.8 mph30%30.07 "HgN/A
10:30 AM64 °FMild.3 mph34%30.07 "HgN/A
10:00 AM63 °FMild.3 mph52%30.07 "HgN/A
9:30 AM61 °FRefreshingly cool.3 mph52%30.07 "Hg6 mi
9:00 AM59 °FSunny.3 mph55%30.07 "Hg6 mi
8:30 AM57 °FRefreshingly cool.3 mph59%30.07 "Hg6 mi
8:00 AM55 °FSunny.1 mph67%30.07 "Hg6 mi
Weather by CustomWeather, © 2016

See weather overviewHow to use our weather pages